www.pogodaiklimat.ru
ПОГОДА в Округе Мартин
Время
и дата
05:15 07.02
05:35 07.02
05:55 07.02
06:15 07.02
06:35 07.02
06:55 07.02
07:15 07.02
07:35 07.02
07:55 07.02
08:15 07.02
08:35 07.02
09:55 07.02
10:15 07.02
10:35 07.02
11:00 07.02
11:15 07.02
11:35 07.02
11:55 07.02
12:35 07.02
12:55 07.02
13:15 07.02
13:35 07.02
13:55 07.02
14:15 07.02
14:35 07.02
14:55 07.02
15:15 07.02
15:35 07.02
15:55 07.02
16:15 07.02
16:35 07.02
16:55 07.02
17:15 07.02
17:35 07.02
17:55 07.02
18:15 07.02
18:35 07.02
18:55 07.02
19:15 07.02
19:35 07.02
19:55 07.02
20:15 07.02
20:35 07.02
20:55 07.02
21:15 07.02
21:35 07.02
21:55 07.02
22:15 07.02
Ветер
(напр.,м/с)
Видим. Явления Облачность Т
(С)
Тd
(С)
f
(%)
Тe
(С)
Тes
(С)
Комфортность P
(гПа)
Po
(гПа)
Тmin
(С)
Tmax
(С)
R
(мм)
R24
(мм)
S
(см)
Ю 3 16 км ясно +4.0 -2.5 63 +1 +1 976.9
Ю 3 16 км ясно +5.3 -3.0 55 +2 +2 976.9
Ю 2 16 км ясно +5.0 -3.0 56 +3 +3 977.3
штиль 0 16 км ясно +4.9 -3.2 56 +4 +4 977.6
штиль 0 16 км ясно +4.0 -3.1 60 +3 +3 977.9
штиль 0 16 км ясно +3.1 -3.1 64 +2 +2 978.2 +2.1 +5.4
штиль 0 16 км ясно +3.5 -3.2 62 +3 +3 978.2
штиль 0 16 км ясно +4.4 -3.1 58 +4 +4 978.6
ЮЗ 2 16 км ясно +4.7 -3.1 57 +3 +3 978.6
Ю 2 16 км ясно +5.8 -2.4 56 +4 +4 978.9
Ю 3 16 км ясно +6.8 -2.1 53 +4 +5 978.9
Ю 4 16 км ясно +10.2 -2.3 41 +8 +9 978.9
Ю 4 16 км ясно +10.6 -2.0 41 +9 +12 978.9
ЮЗ 4 16 км ясно +11.8 -1.3 40 +10 +13 978.9
ЮЗ 3 16 км ясно +13.0 -1.0 38 +12 +17 978.9
ЮЗ 4 16 км ясно +13.9 -0.5 37 +13 +17 978.9
ЮЗ 3 16 км ясно +14.2 0.0 38 +14 +19 978.9
ЮЗ 4 16 км ясно +15.0 +0.4 37 +14 +19 978.6
З 5
{10}
16 км ясно +17.0 +1.6 35 +16 +20 977.9
З 2 16 км ясно +16.7 +1.4 36 +17 +25 977.9 +3.1 +17.3
ЮЗ 4 16 км ясно +17.0 +1.5 35 +17 +22 977.3
ЮЗ 3
{8}
16 км ясно +17.6 +1.5 34 +18 +24 976.9
ЮЗ 4
{8}
16 км ясно +18.0 +1.4 33 +18 +23 976.6
З 3 16 км ясно +17.8 +1.6 34 +18 +23 976.3
ЮЗ 3 16 км ясно +18.3 +1.5 32 +19 +24 976.3
З 2 16 км ясно +18.2 +1.6 33 +19 +25 976.0
ЮЗ 4
{8}
16 км ясно +18.5 0.0 29 +18 +21 976.0
ЮЗ 6
{8}
16 км ясно +18.9 -0.6 27 +19 +20 976.0
ЮЗ 4
{8}
16 км ясно +18.7 -0.6 27 +19 +22 976.0
ЮЗ 6
{9}
16 км ясно +18.1 -0.7 28 +18 +18 976.3
ЮЗ 7
{9}
16 км ясно +17.7 -0.2 30 +17 +17 976.3
ЮЗ 3
{8}
16 км ясно +17.5 0.0 31 +18 +19 976.3
ЮЗ 4 16 км ясно +17.0 0.0 32 +17 +17 976.3
ЮЗ 3 16 км ясно +17.0 +0.1 32 +17 +17 976.3
ЮЗ 3 16 км ясно +16.9 0.0 32 +17 +17 976.6
ЮЗ 2 16 км ясно +16.5 0.0 33 +17 +17 976.9
ЮЗ 3 16 км ясно +16.2 0.0 33 +16 +16 977.3
ЮЗ 2 16 км ясно +16.1 0.0 33 +16 +16 977.3 +16.1 +19.1
ЮЗ 2 16 км ясно +16.0 0.0 34 +16 +16 977.3
ЮЗ 3 16 км ясно +15.7 0.0 34 +15 +15 977.6
ЮЗ 3 16 км ясно +15.9 +0.2 34 +16 +16 977.9
ЮЗ 3 16 км ясно +15.6 +0.5 36 +15 +15 977.9
З 4 16 км ясно +15.5 +0.7 37 +15 +15 977.9
З 4 16 км ясно +15.6 +1.0 37 +15 +15 977.9
ЮЗ 3 16 км ясно +15.2 +1.0 38 +15 +15 978.2
ЮЗ 3 16 км 5/5 1800 м +15.1 +1.1 39 +15 +15 978.2
ЮЗ 3 16 км 5/5 1800 м +15.0 +1.3 39 +15 +15 977.9
ЮЗ 3 16 км ясно +15.0 +1.5 40 +14 +14 977.9
Местоположение метеостанции Big Sandy Regional Airport: широта 37.7510 долгота -82.6367 высота над уровнем моря 372 м.
В архиве по умолчанию представлена погода в Округе Мартин за последние 1-2 суток. Обновление информации о фактической погоде в базе происходит ежечасно! Архивные данные за месяц целиком и за предыдущие месяцы Вы можете получить, выбрав интересующий диапазон дат из раскрывающегося списка и нажав кнопку "Ввод!".
Внимание! Архив погоды МЕТАР в базе сайта по станциям, не включенным в климатический монитор, хранится не более 60 дней. Нет смысла пытаться выбрать более раннюю дату.
*Определитесь, кто Вы:
Внимание! Время в таблицах - местное (без учета летнего времени). Для получения всемирного времени необходимо вычесть поправку, которая равна -5 ч.
Смотрите также архив погоды в соседних городах и на ближайших метеорологических станциях:
Партнеры нашего сайта:      
Пояснения к столбцам:
  • Ветер - указаны скорость ветра в м/с - средняя за 10 мин, порывы в срок и между сроками (в фигурных скобках) и направление, откуда дует ветер: С - северный,
  • СВ - северо-восточный, В - восточный, ЮВ - юго-восточный, Ю - южный, ЮЗ - юго-западный, З - западный, СЗ - северо-западный.
  • Видимость - горизонтальная дальность видимости в метрах или километрах. При видимости от 1 до 10 км при отсутствии осадков обычно наблюдается дымка, при ухудшении видимости до 1 км и менее - туман. В сухую погоду видимость может ухудшаться дымом, пылью или мглою.
  • Явления - указаны атмосферные явления, наблюдавшиеся в срок или в последний час перед сроком; фигурными скобками обозначены явления, наблюдавшиеся между сроками (за 1-3 часа до срока); квадратными скобками обозначены град или гололедные отложения с указанием их диаметра в мм.
  • Облачность - указаны через наклонную черту общая и нижняя облачность в баллах и высота нижней границы облаков в метрах; квадратными скобками обозначены формы облаков: Ci - перистые, Cs - перисто-слоистые, Cc - перисто-кучевые, Ac - высококучевые, As - высокослоистые, Sc - слоисто-кучевые, Ns - слоисто-дождевые, Cu - кучевые, Cb - кучево-дождевые. Подробнее классификацию облаков см. в Атласе облаков (PDF).
  • T - Температура воздуха - температура, измеренная на высоте 2 м над землей.
  • Td - Температура точки росы - температура, при понижении до которой содержащийся в воздухе водяной пар достигнет насыщения.
  • f - Относительная влажность воздуха - влажноcть воздуха, измеренная на высоте 2 м над землей.
  • Te - Эффективная температура - температура, которую ощущает одетый по сезону человек в тени. Характеристика душности погоды. При расчете учитывается влияние влажности воздуха и скорости ветра на теплоощущения человека.
  • Tes - Эффективная температура на солнце - температура, которую ощущает человек, с поправкой на солнечный нагрев. Характеристика знойности погоды. Зависит от высоты солнца над горизонтом, облачности и скорости ветра. Ночью, в пасмурную погоду, а также при ветре 12 м/с и более поправка равна нулю.
  • P - Атмосферное давление - приведенное к уровню моря атмосферное давление.
  • Po - Атмосферное давление - измеренное на уровне метеостанции атмосферное давление.
  • Tmin - Минимальная температура - минимум температуры воздуха на высоте 2 м над землей.
  • Tmax - Максимальная температура - максимум температуры воздуха на высоте 2 м над землей.
  • R - Количество осадков - Количество выпавших осадков за период времени, мм. При наведении курсора мыши на число - период времени, за который выпало указанное количество осадков.
  • R24 - Количество осадков - Количество выпавших осадков за 24 часа, мм.
  • S - Снежный покров - Высота снежного покрова, см. При наведении курсора мыши на число - состояние снежного покрова и степень покрытия местности в баллах.